Location: Rounton
(54.4000°N, 1.3500°W)
Time: 02:24:07
(UTC+00:00)

Altair - Pass Details

Date: 06 December 2021
Orbit: 1501 x 1683 km, 47.2° (Epoch: 19 January)

Event Time Altitude Azimuth Distance (km) Brightness Sun altitude
Rises 18:34:46 0° 267° (W) 4,727 11.5 -23.7°
Reaches altitude 10° 18:37:56 10° 263° (W) 3,722 10.6 -24.1°
Maximum altitude 18:46:54 54° 190° (S) 1,786 7.8 -25.4°
Enters shadow 18:51:08 32° 131° (SE) 2,353 8.1 -26.0°
